#timestamp,LO_Frequency,Hit,StdDev 
1610611215.7,286047014.5,N
1610611235.6,286047009.7,N
1610611255.4,286047004.1,N
1610611275.3,286046996.7,N
1610611295.1,286046993.4,N
1610611296.0,286046993.4,N
1610611315.8,286047004.5,N
1610611335.7,286047009.6,N
1610611355.5,286047007.8,N
1610611375.4,286047018.2,N
1610611395.2,286047019.1,N
1610611415.0,286047015.1,N
1610611415.9,286047015.1,N
1610611435.8,286047007.3,N
1610611455.6,286047011.9,N
1610611475.4,286047013.6,N
1610611495.3,286047015.6,N
1610611515.1,286047017.2,N
1610611535.9,286047013.8,N
1610611555.7,286047008.0,N
1610611575.5,286047010.5,N
1610611595.4,286047017.2,N
1610611615.2,286047019.3,N
1610611635.1,286047034.0,Y
1610611636.0,286047034.0,P
1610611655.8,286047015.8,N
1610611675.6,286047009.7,N
1610611695.5,286047001.6,N
1610611715.3,286046996.6,N
1610611735.1,286046996.3,N
1610611755.9,286046993.6,N
1610611775.7,286046991.3,N
1610611795.6,286046991.9,N
1610611815.4,286046994.4,N
1610611835.2,286046989.8,N
1610611855.1,286046982.3,N
1610611856.0,286046982.3,N
1610611875.8,286046977.9,N
1610611895.6,286046982.7,N
1610611915.5,286046991.4,N
1610611935.3,286047001.9,N
1610611955.2,286047003.9,N
1610611975.0,286046994.3,N
1610611975.9,286046994.3,N
1610611995.7,286046989.4,N
1610612015.6,286046987.7,N
1610612035.4,286046988.4,N
1610612055.3,286046983.6,N
1610612075.1,286046982.5,N
1610612076.0,286046982.5,N
1610612095.8,286046978.1,N
1610612115.7,286046978.3,N
1610612135.5,286046979.4,N
1610612155.4,286046982.5,N
1610612175.2,286046987.3,N
1610612195.0,286046985.9,N
1610612195.9,286046985.9,N
1610612215.8,286046983.9,N
1610612235.6,286046992.2,N
1610612255.4,286047004.7,N
1610612275.3,286047014.1,N
1610612295.1,286047023.1,N
1610612315.9,286047020.5,N
1610612335.7,286047010.9,N
1610612355.5,286047008.4,N
1610612375.4,286047000.3,N
1610612395.2,286046999.3,N
1610612415.1,286047009.2,N
1610612416.0,286047009.2,N
1610612435.8,286047010.5,N
1610612455.6,286047006.8,N
1610612475.5,286047003.7,N
1610612495.3,286047006.3,N
1610612515.1,286047009.3,N
1610612535.9,286047006.2,N
1610612555.7,286047004.5,N
1610612575.6,286047001.0,N
1610612595.4,286046995.7,N
1610612615.2,286046990.5,N
1610612635.1,286046989.6,N
1610612636.0,286046989.6,N
1610612655.8,286046987.9,N
1610612675.7,286047001.8,N
1610612695.5,286046999.9,N
1610612715.3,286046993.7,N
1610612735.2,286046994.6,N
1610612755.0,286046990.5,N
1610612755.9,286046990.5,N
1610612775.7,286046984.9,N
1610612795.6,286046980.5,N
1610612815.4,286046983.2,N
1610612835.3,286046978.4,N
1610612855.1,286046971.2,N
1610612856.0,286046971.2,N
1610612875.8,286046966.5,N
1610612895.7,286046969.0,N
1610612915.5,286046978.4,N
1610612935.3,286046980.8,N
1610612955.2,286046985.9,N
1610612975.0,286046992.7,N
1610613006.0,286047001.2,E
1610613015.9,286046997.3,N
1610613035.7,286046988.8,P
1610613055.6,286046994.2,N
1610613075.4,286046994.2,N
1610613095.2,286046988.9,Y
1610613115.1,286046997.3,P
1610613116.0,286046997.3,N
1610613135.8,286047005.0,N
1610613155.7,286047003.7,N
1610613175.5,286047005.5,N
1610613195.3,286047012.8,N
1610613215.2,286047016.3,N
1610613235.0,286047007.2,N
1610613235.9,286047007.2,N
1610613255.7,286047000.6,N
1610613275.6,286046991.7,N
1610613295.4,286046995.7,N
1610613315.3,286046992.9,N
1610613335.1,286046990.8,N
1610613355.8,286046996.9,N
1610613375.7,286047011.4,N
1610613395.5,286047016.7,N
1610613415.4,286047014.2,N
1610613435.2,286047011.9,N
1610613455.0,286047013.9,N
1610613455.9,286047013.9,N
1610613475.8,286047002.9,N
1610613495.6,286046995.5,N
1610613515.4,286046990.6,N
1610613535.3,286046996.4,N
1610613555.1,286047000.7,N
1610613575.9,286046996.0,N
1610613595.7,286047003.9,N
1610613615.5,286047000.5,N
1610613635.4,286046996.8,N
1610613655.2,286046992.7,N
1610613675.0,286046995.6,N
1610613675.9,286046995.6,N
1610613695.8,286047002.7,N
1610613715.6,286047001.4,N
1610613735.5,286046996.8,N
1610613755.3,286047003.3,N
1610613775.1,286047008.0,N
1610613795.9,286047011.9,N
1610613815.7,286047009.3,N
1610613835.6,286047007.8,N
1610613855.4,286047023.2,N
1610613875.2,286047024.9,N
1610613895.1,286047021.7,N
1610613896.0,286047021.7,N
1610613915.8,286047018.1,N
1610613935.6,286047018.7,N
1610613955.5,286047024.5,N
1610613975.3,286047026.6,N
1610613995.2,286047031.5,N
1610614015.9,286047028.9,N
1610614035.7,286047019.4,N
1610614055.6,286047014.0,N
1610614075.4,286047006.8,N
1610614095.3,286047000.5,N
1610614115.1,286046994.9,N
1610614116.0,286046994.9,N
1610614135.8,286046999.4,N
1610614155.7,286046998.1,N
1610614175.5,286046994.5,N
1610614195.3,286047002.5,N
1610614215.2,286047013.1,N
1610614235.0,286047019.5,N
1610614235.9,286047019.5,N
1610614255.8,286047012.1,N
1610614275.6,286047003.1,N
1610614295.4,286046995.5,N
1610614315.3,286046991.7,N
1610614335.1,286046987.0,N
1610614355.9,286046990.6,N
1610614375.7,286046985.5,N
1610614395.5,286046981.4,N
1610614415.4,286046979.7,N
1610614435.2,286046976.1,N
1610614455.0,286046970.3,N
1610614456.0,286046970.3,N
1610614475.8,286046967.2,N
1610614495.6,286046966.8,N
1610614515.5,286046965.4,N
1610614535.3,286046967.2,N
1610614555.1,286046964.3,N
1610614575.9,286046958.8,N
1610614595.7,286046968.0,N
1610614615.6,286046969.3,N
1610614635.4,286046967.8,N
1610614655.2,286046970.8,N
1610614675.1,286046962.9,N
1610614676.0,286046962.9,N
1610614695.8,286046958.5,N
1610614715.6,286046960.4,N
1610614735.5,286046961.8,N
1610614755.3,286046962.1,N
1610614775.2,286046960.2,N
1610614795.9,286046955.5,N
